Time,TemperatureF,DewpointF,PressureIn,WindDirection,WindDirectionDegrees,WindSpeedMPH,WindSpeedGustMPH,Humidity,HourlyPrecipIn,Conditions,Clouds,dailyrainin,SoftwareType,DateUTC
2013-08-03 00:09:00,81.0,77.0,29.94,SE,127,9.0,18.0,86,0.00,,,0.00,weatherlink.com 1.10,2013-08-03 05:09:00,
2013-08-03 00:24:00,81.0,77.0,29.94,SE,138,10.0,14.0,86,0.00,,,0.00,weatherlink.com 1.10,2013-08-03 05:24:00,
2013-08-03 00:39:00,81.0,77.0,29.94,SE,126,9.0,14.0,86,0.00,,,0.00,weatherlink.com 1.10,2013-08-03 05:39:00,
2013-08-03 00:54:00,80.8,76.0,29.94,SSE,154,8.0,14.0,86,0.00,,,0.00,weatherlink.com 1.10,2013-08-03 05:54:00,
2013-08-03 01:09:00,80.8,76.0,29.94,SE,132,10.0,14.0,85,0.00,,,0.00,weatherlink.com 1.10,2013-08-03 06:09:00,
2013-08-03 01:23:00,80.6,75.0,29.94,SE,140,8.0,13.0,84,0.00,,,0.00,weatherlink.com 1.10,2013-08-03 06:23:00,
2013-08-03 01:39:00,80.5,75.0,29.95,SSE,158,9.0,13.0,83,0.00,,,0.00,weatherlink.com 1.10,2013-08-03 06:39:00,
2013-08-03 01:54:00,80.6,75.0,29.95,SSE,166,11.0,13.0,82,0.00,,,0.00,weatherlink.com 1.10,2013-08-03 06:54:00,
2013-08-03 02:09:00,80.6,75.0,29.95,SE,129,9.0,13.0,82,0.00,,,0.00,weatherlink.com 1.10,2013-08-03 07:09:00,
2013-08-03 02:24:00,80.5,75.0,29.94,SSE,161,8.0,13.0,83,0.00,,,0.00,weatherlink.com 1.10,2013-08-03 07:24:00,
2013-08-03 02:39:00,80.5,75.0,29.94,SSE,150,8.0,12.0,83,0.00,,,0.00,weatherlink.com 1.10,2013-08-03 07:39:00,
2013-08-03 02:54:00,80.4,76.0,29.94,SSE,150,6.0,12.0,85,0.00,,,0.00,weatherlink.com 1.10,2013-08-03 07:54:00,
2013-08-03 03:09:00,80.3,76.0,29.94,SE,129,8.0,10.0,86,0.00,,,0.00,weatherlink.com 1.10,2013-08-03 08:09:00,
2013-08-03 03:24:00,80.3,76.0,29.93,SSE,160,5.0,8.0,87,0.00,,,0.00,weatherlink.com 1.10,2013-08-03 08:24:00,
2013-08-03 03:39:00,80.1,76.0,29.93,SE,144,3.0,10.0,87,0.00,,,0.00,weatherlink.com 1.10,2013-08-03 08:39:00,
2013-08-03 03:54:00,80.1,76.0,29.93,SSE,156,6.0,9.0,88,0.00,,,0.00,weatherlink.com 1.10,2013-08-03 08:54:00,
2013-08-03 04:09:00,80.2,76.0,29.92,SSE,150,5.0,7.0,88,0.00,,,0.00,weatherlink.com 1.10,2013-08-03 09:09:00,
2013-08-03 04:24:00,80.1,77.0,29.92,South,177,6.0,9.0,89,0.00,,,0.00,weatherlink.com 1.10,2013-08-03 09:24:00,
2013-08-03 04:39:00,79.9,77.0,29.92,South,172,6.0,9.0,89,0.00,,,0.00,weatherlink.com 1.10,2013-08-03 09:39:00,
2013-08-03 04:54:00,79.8,77.0,29.92,South,185,6.0,9.0,90,0.00,,,0.00,weatherlink.com 1.10,2013-08-03 09:54:00,
2013-08-03 05:09:00,79.7,77.0,29.92,SSW,199,2.0,7.0,90,0.00,,,0.00,weatherlink.com 1.10,2013-08-03 10:09:00,
2013-08-03 05:24:00,79.5,76.0,29.92,South,187,4.0,6.0,90,0.00,,,0.00,weatherlink.com 1.10,2013-08-03 10:24:00,
2013-08-03 05:39:00,79.5,77.0,29.92,South,171,4.0,6.0,91,0.00,,,0.00,weatherlink.com 1.10,2013-08-03 10:39:00,
2013-08-03 05:54:00,79.5,77.0,29.93,SSE,168,0.0,6.0,91,0.00,,,0.00,weatherlink.com 1.10,2013-08-03 10:54:00,
2013-08-03 06:09:00,79.4,77.0,29.93,South,175,2.0,5.0,91,0.00,,,0.00,weatherlink.com 1.10,2013-08-03 11:09:00,
2013-08-03 06:24:00,79.4,77.0,29.94,South,175,1.0,5.0,91,0.00,,,0.00,weatherlink.com 1.10,2013-08-03 11:24:00,
2013-08-03 06:39:00,79.4,77.0,29.94,SSE,163,6.0,7.0,91,0.00,,,0.00,weatherlink.com 1.10,2013-08-03 11:39:00,
2013-08-03 06:54:00,79.6,77.0,29.95,South,170,5.0,6.0,91,0.00,,,0.00,weatherlink.com 1.10,2013-08-03 11:54:00,
2013-08-03 07:09:00,79.8,77.0,29.95,SSE,167,4.0,7.0,91,0.00,,,0.00,weatherlink.com 1.10,2013-08-03 12:09:00,
2013-08-03 07:24:00,80.2,77.0,29.95,SSE,155,5.0,7.0,91,0.00,,,0.00,weatherlink.com 1.10,2013-08-03 12:24:00,
2013-08-03 07:39:00,80.6,78.0,29.95,South,172,6.0,8.0,90,0.00,,,0.00,weatherlink.com 1.10,2013-08-03 12:39:00,
2013-08-03 07:54:00,81.2,78.0,29.95,SE,144,5.0,8.0,89,0.00,,,0.00,weatherlink.com 1.10,2013-08-03 12:54:00,
2013-08-03 08:09:00,81.7,78.0,29.95,SSE,154,7.0,9.0,88,0.00,,,0.00,weatherlink.com 1.10,2013-08-03 13:09:00,
2013-08-03 08:24:00,81.8,78.0,29.95,SE,142,6.0,12.0,87,0.00,,,0.00,weatherlink.com 1.10,2013-08-03 13:24:00,
2013-08-03 08:39:00,82.4,78.0,29.96,South,169,7.0,12.0,86,0.00,,,0.00,weatherlink.com 1.10,2013-08-03 13:39:00,
2013-08-03 08:54:00,82.9,78.0,29.96,SSE,163,8.0,11.0,84,0.00,,,0.00,weatherlink.com 1.10,2013-08-03 13:54:00,
2013-08-03 09:09:00,83.5,78.0,29.96,SSE,164,9.0,12.0,83,0.00,,,0.00,weatherlink.com 1.10,2013-08-03 14:09:00,
2013-08-03 09:24:00,83.9,78.0,29.96,SE,145,8.0,12.0,82,0.00,,,0.00,weatherlink.com 1.10,2013-08-03 14:24:00,
2013-08-03 09:39:00,83.7,78.0,29.96,ESE,116,9.0,13.0,82,0.00,,,0.00,weatherlink.com 1.10,2013-08-03 14:39:00,
2013-08-03 09:54:00,84.1,77.0,29.96,SE,134,9.0,13.0,80,0.00,,,0.00,weatherlink.com 1.10,2013-08-03 14:54:00,
2013-08-03 10:09:00,84.5,77.0,29.97,SE,125,7.0,12.0,79,0.00,,,0.00,weatherlink.com 1.10,2013-08-03 15:09:00,
2013-08-03 10:24:00,85.2,77.0,29.97,SE,130,7.0,14.0,77,0.00,,,0.00,weatherlink.com 1.10,2013-08-03 15:24:00,
2013-08-03 10:39:00,85.4,77.0,29.98,SSE,163,6.0,13.0,76,0.00,,,0.00,weatherlink.com 1.10,2013-08-03 15:39:00,
2013-08-03 10:54:00,84.8,77.0,29.98,SSE,161,11.0,15.0,77,0.00,,,0.00,weatherlink.com 1.10,2013-08-03 15:54:00,
2013-08-03 11:09:00,85.7,77.0,29.98,SE,135,9.0,13.0,76,0.00,,,0.00,weatherlink.com 1.10,2013-08-03 16:09:00,
2013-08-03 11:24:00,85.8,78.0,29.98,SE,131,11.0,16.0,77,0.00,,,0.00,weatherlink.com 1.10,2013-08-03 16:24:00,
2013-08-03 11:40:00,85.2,77.0,29.98,SE,131,13.0,20.0,77,0.00,,,0.00,weatherlink.com 1.10,2013-08-03 16:40:00,
2013-08-03 11:55:00,86.5,78.0,29.99,ESE,121,9.0,16.0,76,0.00,,,0.00,weatherlink.com 1.10,2013-08-03 16:55:00,
2013-08-03 12:10:00,86.7,78.0,29.98,ESE,123,10.0,15.0,74,0.00,,,0.00,weatherlink.com 1.10,2013-08-03 17:10:00,
2013-08-03 12:25:00,86.5,79.0,29.98,ESE,114,10.0,14.0,77,0.00,,,0.00,weatherlink.com 1.10,2013-08-03 17:25:00,
2013-08-03 12:40:00,86.5,78.0,29.98,SE,126,11.0,15.0,76,0.00,,,0.00,weatherlink.com 1.10,2013-08-03 17:40:00,
2013-08-03 12:54:00,86.9,79.0,29.97,East,94,11.0,15.0,76,0.00,,,0.00,weatherlink.com 1.10,2013-08-03 17:54:00,
2013-08-03 13:10:00,86.8,78.0,29.97,ESE,109,11.0,18.0,76,0.00,,,0.00,weatherlink.com 1.10,2013-08-03 18:10:00,
2013-08-03 13:25:00,86.4,78.0,29.97,SE,129,6.0,15.0,77,0.00,,,0.00,weatherlink.com 1.10,2013-08-03 18:25:00,
2013-08-03 13:40:00,87.4,79.0,29.97,ESE,115,13.0,16.0,75,0.00,,,0.00,weatherlink.com 1.10,2013-08-03 18:40:00,
2013-08-03 13:55:00,86.5,78.0,29.97,ESE,116,15.0,18.0,76,0.00,,,0.00,weatherlink.com 1.10,2013-08-03 18:55:00,
2013-08-03 14:10:00,86.3,78.0,29.98,East,99,13.0,19.0,77,0.00,,,0.00,weatherlink.com 1.10,2013-08-03 19:10:00,
2013-08-03 14:25:00,87.1,79.0,29.97,ESE,120,12.0,16.0,77,0.00,,,0.00,weatherlink.com 1.10,2013-08-03 19:25:00,
2013-08-03 14:40:00,86.2,79.0,29.96,ESE,117,13.0,20.0,78,0.00,,,0.00,weatherlink.com 1.10,2013-08-03 19:40:00,
2013-08-03 14:55:00,87.1,79.0,29.96,SE,127,13.0,19.0,76,0.00,,,0.00,weatherlink.com 1.10,2013-08-03 19:55:00,
2013-08-03 15:10:00,87.0,79.0,29.96,ESE,111,12.0,16.0,76,0.00,,,0.00,weatherlink.com 1.10,2013-08-03 20:10:00,
2013-08-03 15:25:00,87.1,79.0,29.95,ESE,122,10.0,16.0,76,0.00,,,0.00,weatherlink.com 1.10,2013-08-03 20:25:00,
2013-08-03 15:40:00,86.3,78.0,29.94,SE,125,13.0,19.0,77,0.00,,,0.00,weatherlink.com 1.10,2013-08-03 20:40:00,
2013-08-03 15:55:00,87.3,79.0,29.94,East,88,11.0,18.0,76,0.00,,,0.00,weatherlink.com 1.10,2013-08-03 20:55:00,
2013-08-03 16:10:00,86.9,79.0,29.95,ESE,116,15.0,22.0,77,0.00,,,0.00,weatherlink.com 1.10,2013-08-03 21:10:00,
2013-08-03 16:25:00,86.9,79.0,29.94,SE,134,13.0,18.0,77,0.00,,,0.00,weatherlink.com 1.10,2013-08-03 21:25:00,
2013-08-03 16:40:00,86.5,79.0,29.94,ESE,113,13.0,19.0,78,0.00,,,0.00,weatherlink.com 1.10,2013-08-03 21:40:00,
2013-08-03 16:55:00,86.6,79.0,29.93,East,98,8.0,18.0,78,0.00,,,0.00,weatherlink.com 1.10,2013-08-03 21:55:00,
2013-08-03 17:10:00,86.8,79.0,29.94,SE,134,13.0,20.0,77,0.00,,,0.00,weatherlink.com 1.10,2013-08-03 22:10:00,
2013-08-03 17:25:00,86.5,79.0,29.94,ESE,118,13.0,19.0,78,0.00,,,0.00,weatherlink.com 1.10,2013-08-03 22:25:00,
2013-08-03 17:40:00,86.2,79.0,29.93,ESE,123,15.0,20.0,78,0.00,,,0.00,weatherlink.com 1.10,2013-08-03 22:40:00,
2013-08-03 17:55:00,86.1,79.0,29.93,ESE,117,11.0,20.0,79,0.00,,,0.00,weatherlink.com 1.10,2013-08-03 22:55:00,
2013-08-03 18:10:00,85.6,79.0,29.93,East,100,9.0,20.0,80,0.00,,,0.00,weatherlink.com 1.10,2013-08-03 23:10:00,
2013-08-03 18:25:00,85.4,79.0,29.93,ESE,110,15.0,19.0,80,0.00,,,0.00,weatherlink.com 1.10,2013-08-03 23:25:00,
2013-08-03 18:40:00,85.5,79.0,29.92,ESE,111,12.0,15.0,81,0.00,,,0.00,weatherlink.com 1.10,2013-08-03 23:40:00,
2013-08-03 18:55:00,85.1,79.0,29.92,SE,125,13.0,19.0,81,0.00,,,0.00,weatherlink.com 1.10,2013-08-03 23:55:00,
2013-08-03 19:10:00,84.8,78.0,29.92,ESE,123,14.0,19.0,81,0.00,,,0.00,weatherlink.com 1.10,2013-08-04 00:10:00,
2013-08-03 19:25:00,84.4,79.0,29.92,ESE,109,10.0,19.0,83,0.00,,,0.00,weatherlink.com 1.10,2013-08-04 00:25:00,
2013-08-03 19:40:00,84.1,79.0,29.92,ESE,115,13.0,16.0,83,0.00,,,0.00,weatherlink.com 1.10,2013-08-04 00:40:00,
2013-08-03 19:55:00,83.8,78.0,29.92,ESE,109,14.0,16.0,83,0.00,,,0.00,weatherlink.com 1.10,2013-08-04 00:55:00,
2013-08-03 20:10:00,83.4,78.0,29.93,ESE,118,11.0,16.0,84,0.00,,,0.00,weatherlink.com 1.10,2013-08-04 01:10:00,
2013-08-03 20:25:00,83.2,78.0,29.93,SE,132,11.0,16.0,84,0.00,,,0.00,weatherlink.com 1.10,2013-08-04 01:25:00,
2013-08-03 20:40:00,83.0,78.0,29.94,ESE,106,13.0,16.0,85,0.00,,,0.00,weatherlink.com 1.10,2013-08-04 01:40:00,
2013-08-03 20:55:00,82.8,78.0,29.94,SE,130,12.0,18.0,86,0.00,,,0.00,weatherlink.com 1.10,2013-08-04 01:55:00,
2013-08-03 21:10:00,82.7,78.0,29.94,SE,128,12.0,16.0,86,0.00,,,0.00,weatherlink.com 1.10,2013-08-04 02:10:00,
2013-08-03 21:25:00,82.7,79.0,29.95,SE,134,14.0,18.0,87,0.00,,,0.00,weatherlink.com 1.10,2013-08-04 02:25:00,
2013-08-03 21:40:00,82.6,78.0,29.95,ESE,115,10.0,18.0,87,0.00,,,0.00,weatherlink.com 1.10,2013-08-04 02:40:00,
2013-08-03 21:55:00,82.6,78.0,29.96,SE,132,9.0,16.0,87,0.00,,,0.00,weatherlink.com 1.10,2013-08-04 02:55:00,
2013-08-03 22:10:00,82.5,78.0,29.97,SE,131,13.0,16.0,87,0.00,,,0.00,weatherlink.com 1.10,2013-08-04 03:10:00,
2013-08-03 22:25:00,82.4,78.0,29.98,SE,139,8.0,16.0,87,0.00,,,0.00,weatherlink.com 1.10,2013-08-04 03:25:00,
2013-08-03 22:40:00,82.3,78.0,29.98,ESE,123,11.0,16.0,87,0.00,,,0.00,weatherlink.com 1.10,2013-08-04 03:40:00,
2013-08-03 22:55:00,82.3,78.0,29.98,SE,124,7.0,19.0,86,0.00,,,0.00,weatherlink.com 1.10,2013-08-04 03:55:00,
2013-08-03 23:10:00,82.3,78.0,29.99,SE,145,9.0,16.0,86,0.00,,,0.00,weatherlink.com 1.10,2013-08-04 04:10:00,
2013-08-03 23:25:00,82.2,78.0,29.99,SSE,156,11.0,16.0,86,0.00,,,0.00,weatherlink.com 1.10,2013-08-04 04:25:00,
2013-08-03 23:40:00,82.2,78.0,29.99,ESE,120,10.0,14.0,87,0.00,,,0.00,weatherlink.com 1.10,2013-08-04 04:40:00,
2013-08-03 23:55:00,82.0,78.0,29.98,SE,146,10.0,14.0,87,0.00,,,0.00,weatherlink.com 1.10,2013-08-04 04:55:00,